Weather History for KTOR - March, 2014

Change the Weather History Date:

Sunday, March 9, 2014

  Actual Average Record
Temperature  
Mean Temperature 55 °F 36 °F  
Max Temperature 67 °F 50 °F 72 °F (2004)
Min Temperature 43 °F 23 °F 1 °F (2002)
Degree Days  
Heating Degree Days 10 29  
Month to date heating degree days 300 269  
Since 1 July heating degree days 5415 5113  
Cooling Degree Days 0 0  
Month to date cooling degree days 0 0  
Year to date cooling degree days 0 0  
Growing Degree Days 4 (Base 50)    
Moisture  
Dew Point 22 °F    
Average Humidity 34    
Maximum Humidity 49    
Minimum Humidity 19    
Precipitation  
Precipitation 0.00 in 0.02 in 0.09 in (2013)
Month to date precipitation 0.31 0.12  
Year to date precipitation 1.07 0.72  
Sea Level Pressure  
Sea Level Pressure 29.94 in    
Wind  
Wind Speed 17 mph (West)    
Max Wind Speed 36 mph    
Max Gust Speed 46 mph    
Visibility 10 miles    
Events      
T = Trace of Precipitation, MM = Missing Value Source: NWS Daily Summary

Daily Weather History Graph

Daily Weather History Graph

Search for Another Location

Airport or City:

Trip Planner

Search our weather history database for the weather conditions in past years. The results will help you decide how hot, cold, wet, or windy it might be!

Date:

Astronomy

Mar. 09, 2014 Rise Set
Actual Time 7:18 AM MDT 6:56 PM MDT
Civil Twilight 6:50 AM MDT 7:24 PM MDT
Nautical Twilight 6:18 AM MDT 7:56 PM MDT
Astronomical Twilight 5:45 AM MDT 8:29 PM MDT
Moon 12:46 PM MDT (3/9) 3:50 AM MDT (3/9)
Length of Visible Light 12h 33m
Length of Day
11h 37m
First Quarter, 61% of the Moon is Illuminated
Mar 9
First Quarter
Mar 16
Full
Mar 23
Last Quarter
Mar 30
New
Apr 7
First Quarter

Hourly Weather History & Observations

Time (MDT) Temp. Windchill Dew Point Humidity Pressure Visibility Wind Dir Wind Speed Gust Speed Precip Events Conditions
12:53 AM 45.0 °F 39.3 °F 26.1 °F 48% 30.06 in 10.0 mi West 11.5 mph - N/A   Clear
1:53 AM 44.1 °F 36.8 °F 25.0 °F 47% 30.03 in 10.0 mi West 16.1 mph - N/A   Clear
3:53 AM 46.9 °F - 21.9 °F 37% 29.99 in 10.0 mi West 19.6 mph - N/A   Clear
4:53 AM 45.0 °F 39.3 °F 21.9 °F 40% 29.99 in 10.0 mi WSW 11.5 mph - N/A   Clear
5:53 AM 48.0 °F - 19.9 °F 33% 29.99 in 10.0 mi WNW 11.5 mph - N/A   Clear
6:53 AM 48.0 °F - 21.0 °F 34% 29.99 in 10.0 mi West 19.6 mph 32.2 mph N/A   Clear
7:53 AM 50.0 °F - 19.9 °F 31% 30.01 in 10.0 mi NW 11.5 mph - N/A   Clear
8:53 AM 53.1 °F - 19.0 °F 26% 30.00 in 10.0 mi West 18.4 mph 28.8 mph N/A   Clear
9:53 AM 55.9 °F - 21.0 °F 26% 29.99 in 10.0 mi West 23.0 mph 35.7 mph N/A   Clear
10:53 AM 59.0 °F - 19.9 °F 22% 29.97 in 10.0 mi West 26.5 mph 39.1 mph N/A   Clear
11:53 AM 62.1 °F - 19.0 °F 19% 29.94 in 10.0 mi West 28.8 mph 40.3 mph N/A   Clear
12:53 PM 64.0 °F - 21.0 °F 19% 29.92 in 10.0 mi West 17.3 mph 29.9 mph N/A   Clear
1:53 PM 64.0 °F - 23.0 °F 21% 29.89 in 10.0 mi West 23.0 mph 36.8 mph N/A   Clear
2:53 PM 63.0 °F - 23.0 °F 22% 29.88 in 10.0 mi West 32.2 mph 43.7 mph N/A   Clear
3:53 PM 62.1 °F - 24.1 °F 23% 29.87 in 10.0 mi West 29.9 mph 41.4 mph N/A   Clear
4:53 PM 62.1 °F - 25.0 °F 24% 29.88 in 10.0 mi West 21.9 mph 34.5 mph N/A   Clear
5:53 PM 61.0 °F - 24.1 °F 24% 29.88 in 10.0 mi West 18.4 mph 28.8 mph N/A   Clear
6:53 PM 60.1 °F - 19.9 °F 21% 29.88 in 10.0 mi West 17.3 mph 36.8 mph N/A   Clear
7:53 PM 57.0 °F - 25.0 °F 29% 29.89 in 10.0 mi West 11.5 mph - N/A   Clear
8:53 PM 57.9 °F - 21.9 °F 25% 29.88 in 10.0 mi WNW 10.4 mph - N/A   Clear
9:53 PM 55.9 °F - 21.9 °F 27% 29.89 in 10.0 mi West 8.1 mph - N/A   Clear
10:53 PM 55.0 °F - 23.0 °F 29% 29.88 in 10.0 mi West 10.4 mph - N/A   Clear
11:53 PM 48.0 °F - 26.1 °F 42% 29.88 in 10.0 mi SSE 5.8 mph - N/A   Clear
12:53 AM 48.9 °F - 24.1 °F 38% 29.88 in 10.0 mi WSW 6.9 mph - N/A   Clear